カタログに戻る

ELECTRON KICK STAGE R/B

運用中PO
NORAD 44636·ROCKET BODY·🇺🇸 United States

打ち上げ Oct 17, 2019 から Rocket Lab Launch Complex 1

Loading…

次のパス (今後24時間)

TLE

最新Source: Space-Track

元期: Sep 13, 2026, 18:12 UTC

1 44636U 19069C   26256.75893355  .00001899  00000-0  24773-3 0  9997
2 44636  87.9041 160.7252 0431710 136.9821 226.5996 14.31281701357847

AllMySatでELECTRON KICK STAGE R/Bをリアルタイム追跡

Download on the App Store